DAL841 KSLC-KLAX

Flight info

Callsign DAL841
Flight time 1h 48m
Altitude 40000
Route ARCHZ1 WINEN LAKRR Q73 HAKMN ANJLL4
Aircraft B772/H-SDE2E3FGHIJ5LORVWXY/LB1D1

Departure

Time 2026-05-03 23:08
Airport Salt Lake City International Airport (KSLC)

Arrival

Time 2026-05-04 00:57
Airport Los Angeles International Airport (KLAX)
Time Latitude Longitude Altitude Speed Heading
2026-05-03 22:26 40.78600 -111.99063 4235 ft 0 kts 175°
2026-05-03 22:59 40.78619 -111.99065 4234 ft 4 kts 175°
2026-05-03 22:59 40.78643 -111.99068 4235 ft 4 kts 181°
2026-05-03 22:59 40.78664 -111.99059 4233 ft 4 kts 241°
2026-05-03 23:00 40.78670 -111.99027 4235 ft 4 kts 266°
2026-05-03 23:00 40.78671 -111.99013 4234 ft 1 kts 264°
2026-05-03 23:00 40.78671 -111.99012 4234 ft 0 kts 264°
2026-05-03 23:03 40.78671 -111.99016 4234 ft 5 kts 264°
2026-05-03 23:03 40.78664 -111.99114 4237 ft 11 kts 264°
2026-05-03 23:03 40.78656 -111.99218 4238 ft 11 kts 264°
2026-05-03 23:04 40.78649 -111.99321 4237 ft 11 kts 264°
2026-05-03 23:04 40.78638 -111.99423 4236 ft 11 kts 250°
2026-05-03 23:04 40.78567 -111.99452 4236 ft 11 kts 178°
2026-05-03 23:04 40.78488 -111.99446 4236 ft 11 kts 176°
2026-05-03 23:05 40.78399 -111.99435 4235 ft 19 kts 174°
2026-05-03 23:05 40.78265 -111.99418 4231 ft 19 kts 174°
2026-05-03 23:05 40.78131 -111.99401 4233 ft 19 kts 174°
2026-05-03 23:05 40.78013 -111.99416 4251 ft 16 kts 190°
2026-05-03 23:06 40.77900 -111.99431 4252 ft 16 kts 178°
2026-05-03 23:06 40.77789 -111.99408 4251 ft 16 kts 165°
2026-05-03 23:06 40.77677 -111.99395 4256 ft 16 kts 180°
2026-05-03 23:06 40.77594 -111.99471 4257 ft 16 kts 261°
2026-05-03 23:07 40.77636 -111.99564 4256 ft 11 kts 347°
2026-05-03 23:07 40.77648 -111.99566 4256 ft 0 kts 354°
2026-05-03 23:07 40.77665 -111.99568 4256 ft 14 kts 354°
2026-05-03 23:07 40.77969 -111.99605 4249 ft 81 kts 355°
2026-05-03 23:08 40.78776 -111.99697 4238 ft 149 kts 355°
2026-05-03 23:08 40.79957 -111.99830 4546 ft 182 kts 355°
2026-05-03 23:08 40.81249 -111.99980 5316 ft 195 kts 353°
2026-05-03 23:08 40.82698 -112.00132 5974 ft 217 kts 354°
2026-05-03 23:09 40.84278 -112.00340 6329 ft 239 kts 353°
2026-05-03 23:09 40.85995 -112.00581 6786 ft 253 kts 353°
2026-05-03 23:09 40.87783 -112.00860 7173 ft 268 kts 348°
2026-05-03 23:09 40.89563 -112.01706 7534 ft 277 kts 328°
2026-05-03 23:10 40.91047 -112.03319 8105 ft 277 kts 303°
2026-05-03 23:10 40.91816 -112.05642 8849 ft 279 kts 278°
2026-05-03 23:10 40.91700 -112.08175 9694 ft 277 kts 251°
2026-05-03 23:10 40.90796 -112.10407 10444 ft 281 kts 232°
2026-05-03 23:11 40.89342 -112.12294 10659 ft 307 kts 220°
2026-05-03 23:11 40.87600 -112.14153 11043 ft 330 kts 218°
2026-05-03 23:11 40.85780 -112.16069 11936 ft 335 kts 218°
2026-05-03 23:11 40.83996 -112.17964 13473 ft 324 kts 219°
2026-05-03 23:12 40.82303 -112.19836 14885 ft 309 kts 224°
2026-05-03 23:12 40.81076 -112.22140 16031 ft 309 kts 243°
2026-05-03 23:12 40.80250 -112.24790 17010 ft 315 kts 248°
2026-05-03 23:12 40.79756 -112.27627 17818 ft 325 kts 266°
2026-05-03 23:13 40.80116 -112.30613 18685 ft 336 kts 288°
2026-05-03 23:13 40.81278 -112.33267 19600 ft 343 kts 308°
2026-05-03 23:13 40.83101 -112.35324 20490 ft 350 kts 328°
2026-05-03 23:13 40.85400 -112.36543 21342 ft 358 kts 346°
2026-05-03 23:14 40.87891 -112.36833 21842 ft 363 kts
2026-05-03 23:14 40.90432 -112.36450 21851 ft 369 kts
2026-05-03 23:14 40.92951 -112.35849 21858 ft 368 kts 10°
2026-05-03 23:14 40.95421 -112.35202 21849 ft 365 kts 11°
2026-05-03 23:15 40.97906 -112.34539 21859 ft 363 kts 11°
2026-05-03 23:15 41.00383 -112.33871 21869 ft 363 kts 11°
2026-05-03 23:15 41.02853 -112.33200 21885 ft 362 kts 11°
2026-05-03 23:15 41.05355 -112.32518 21891 ft 362 kts 11°
2026-05-03 23:16 41.07828 -112.31842 21891 ft 362 kts 11°
2026-05-03 23:16 41.10297 -112.31166 21894 ft 362 kts 11°
2026-05-03 23:16 41.12764 -112.30489 21898 ft 362 kts 11°
2026-05-03 23:16 41.15237 -112.29810 21903 ft 362 kts 11°
2026-05-03 23:17 41.16906 -112.29352 21907 ft 362 kts 11°
2026-05-03 23:17 41.19378 -112.28671 21910 ft 363 kts 11°
2026-05-03 23:17 41.21846 -112.27992 21915 ft 363 kts 11°
2026-05-03 23:17 41.24288 -112.27208 21913 ft 360 kts 19°
2026-05-03 23:18 41.26493 -112.25660 21912 ft 360 kts 37°
2026-05-03 23:18 41.28260 -112.23309 21920 ft 360 kts 54°
2026-05-03 23:18 41.29426 -112.20368 21926 ft 360 kts 72°
2026-05-03 23:18 41.29887 -112.17110 21934 ft 359 kts 89°
2026-05-03 23:19 41.29607 -112.13822 21941 ft 358 kts 107°
2026-05-03 23:19 41.28565 -112.10842 21939 ft 357 kts 129°
2026-05-03 23:19 41.26740 -112.08619 21960 ft 357 kts 152°
2026-05-03 23:19 41.24445 -112.07455 21967 ft 353 kts 172°
2026-05-03 23:20 41.21989 -112.07349 21955 ft 347 kts 190°
2026-05-03 23:20 41.19682 -112.08145 21957 ft 340 kts 199°
2026-05-03 23:20 41.17439 -112.09126 21951 ft 340 kts 200°
2026-05-03 23:20 41.15204 -112.10133 21952 ft 339 kts 200°
2026-05-03 23:21 41.12969 -112.11138 21950 ft 339 kts 200°
2026-05-03 23:21 41.10729 -112.12134 21966 ft 340 kts 200°
2026-05-03 23:21 41.08479 -112.13123 21953 ft 341 kts 199°
2026-05-03 23:21 41.06220 -112.14107 21943 ft 342 kts 199°
2026-05-03 23:22 41.01686 -112.16067 21936 ft 343 kts 199°
2026-05-03 23:22 40.99440 -112.17033 21924 ft 344 kts 198°
2026-05-03 23:22 40.97165 -112.18010 21909 ft 344 kts 198°
2026-05-03 23:23 40.94851 -112.19002 21885 ft 345 kts 198°
2026-05-03 23:23 40.92576 -112.19977 21887 ft 345 kts 198°
2026-05-03 23:23 40.90315 -112.20946 21897 ft 345 kts 198°
2026-05-03 23:23 40.88031 -112.21923 21896 ft 345 kts 198°
2026-05-03 23:24 40.85747 -112.22900 21890 ft 345 kts 198°
2026-05-03 23:24 40.83446 -112.23883 22062 ft 354 kts 198°
2026-05-03 23:24 40.81019 -112.24921 22258 ft 377 kts 198°
2026-05-03 23:24 40.78476 -112.26006 22858 ft 390 kts 199°
2026-05-03 23:25 40.75857 -112.27088 23603 ft 399 kts 196°
2026-05-03 23:25 40.73123 -112.27867 24346 ft 404 kts 189°
2026-05-03 23:25 40.70331 -112.28400 25166 ft 407 kts 189°
2026-05-03 23:25 40.67517 -112.28943 25941 ft 411 kts 189°
2026-05-03 23:26 40.64672 -112.29507 26653 ft 416 kts 189°
2026-05-03 23:26 40.61792 -112.30089 27329 ft 421 kts 189°
2026-05-03 23:26 40.58883 -112.30681 27977 ft 426 kts 189°
2026-05-03 23:26 40.55956 -112.31378 28606 ft 430 kts 194°
2026-05-03 23:27 40.53064 -112.32467 29238 ft 434 kts 198°
2026-05-03 23:27 40.50178 -112.33681 29818 ft 438 kts 198°
2026-05-03 23:27 40.47265 -112.34903 30331 ft 442 kts 198°
2026-05-03 23:27 40.44319 -112.36128 30811 ft 445 kts 198°
2026-05-03 23:28 40.41356 -112.37348 31320 ft 448 kts 198°
2026-05-03 23:28 40.38375 -112.38568 31805 ft 450 kts 198°
2026-05-03 23:28 40.35371 -112.39793 32258 ft 453 kts 198°
2026-05-03 23:28 40.32355 -112.41020 32679 ft 456 kts 198°
2026-05-03 23:29 40.29319 -112.42255 33057 ft 459 kts 198°
2026-05-03 23:29 40.26253 -112.43501 33405 ft 462 kts 198°
2026-05-03 23:29 40.23174 -112.44752 33726 ft 466 kts 198°
2026-05-03 23:29 40.20074 -112.46030 34040 ft 467 kts 199°
2026-05-03 23:30 40.17047 -112.47578 34479 ft 466 kts 205°
2026-05-03 23:30 40.14170 -112.49512 34949 ft 463 kts 210°
2026-05-03 23:30 40.11357 -112.51539 35457 ft 460 kts 210°
2026-05-03 23:30 40.08564 -112.53541 36006 ft 457 kts 210°
2026-05-03 23:31 40.05787 -112.55516 36527 ft 454 kts 210°
2026-05-03 23:31 40.03013 -112.57476 37018 ft 451 kts 210°
2026-05-03 23:31 40.00255 -112.59415 37488 ft 449 kts 210°
2026-05-03 23:31 39.97512 -112.61339 37988 ft 447 kts 210°
2026-05-03 23:32 39.94779 -112.63253 38474 ft 444 kts 211°
2026-05-03 23:32 39.92057 -112.65157 38834 ft 443 kts 211°
2026-05-03 23:32 39.89340 -112.67056 39135 ft 442 kts 211°
2026-05-03 23:32 39.86635 -112.68946 39425 ft 442 kts 211°
2026-05-03 23:33 39.83920 -112.70843 39680 ft 443 kts 211°
2026-05-03 23:33 39.81191 -112.72747 39766 ft 447 kts 211°
2026-05-03 23:33 39.75690 -112.76581 39833 ft 447 kts 211°
2026-05-03 23:34 39.70272 -112.80341 39835 ft 443 kts 210°
2026-05-03 23:34 39.64540 -112.83399 39839 ft 448 kts 201°
2026-05-03 23:35 39.61590 -112.84551 39817 ft 435 kts 200°
2026-05-03 23:35 39.58738 -112.85657 39820 ft 421 kts 201°
2026-05-03 23:35 39.55976 -112.86730 39823 ft 407 kts 201°
2026-05-03 23:35 39.53296 -112.87779 39823 ft 399 kts 201°
2026-05-03 23:36 39.48005 -112.89877 39850 ft 398 kts 201°
2026-05-03 23:36 39.42704 -112.91987 39839 ft 399 kts 202°
2026-05-03 23:37 39.37396 -112.94094 39823 ft 399 kts 202°
2026-05-03 23:37 39.32080 -112.96200 39826 ft 399 kts 202°
2026-05-03 23:38 39.26748 -112.98308 39819 ft 398 kts 202°
2026-05-03 23:38 39.21451 -113.00398 39808 ft 397 kts 202°
2026-05-03 23:39 39.16169 -113.02478 39808 ft 396 kts 202°
2026-05-03 23:39 39.10908 -113.04548 39814 ft 395 kts 202°
2026-05-03 23:40 39.05656 -113.06612 39811 ft 394 kts 202°
2026-05-03 23:40 39.00410 -113.08669 39814 ft 394 kts 202°
2026-05-03 23:41 38.95140 -113.10732 39821 ft 393 kts 203°
2026-05-03 23:41 38.89939 -113.12766 39819 ft 393 kts 203°
2026-05-03 23:42 38.84712 -113.14807 39813 ft 393 kts 203°
2026-05-03 23:42 38.79480 -113.16847 39811 ft 393 kts 203°
2026-05-03 23:43 38.74252 -113.18881 39799 ft 392 kts 203°
2026-05-03 23:43 38.69037 -113.20907 39808 ft 391 kts 203°
2026-05-03 23:44 38.63831 -113.22927 39848 ft 391 kts 203°
2026-05-03 23:44 38.58633 -113.24940 39866 ft 390 kts 203°
2026-05-03 23:45 38.53436 -113.26952 39870 ft 390 kts 203°
2026-05-03 23:45 38.48151 -113.28999 39882 ft 405 kts 204°
2026-05-03 23:46 38.42616 -113.31144 39876 ft 421 kts 204°
2026-05-03 23:46 38.36924 -113.33337 39863 ft 434 kts 204°
2026-05-03 23:47 38.31076 -113.35580 39847 ft 442 kts 203°
2026-05-03 23:47 38.25205 -113.37824 39816 ft 444 kts 203°
2026-05-03 23:48 38.19264 -113.40095 39810 ft 442 kts 203°
2026-05-03 23:48 38.14385 -113.41961 39808 ft 440 kts 203°
2026-05-03 23:49 38.08540 -113.44193 39811 ft 438 kts 203°
2026-05-03 23:49 38.01774 -113.46772 39804 ft 434 kts 204°
2026-05-03 23:50 37.96978 -113.48599 39813 ft 432 kts 204°
2026-05-03 23:50 37.91195 -113.50835 39827 ft 431 kts 205°
2026-05-03 23:51 37.85532 -113.53294 39828 ft 431 kts 206°
2026-05-03 23:51 37.79864 -113.55815 39808 ft 431 kts 207°
2026-05-03 23:52 37.74197 -113.58304 39821 ft 431 kts 207°
2026-05-03 23:52 37.68524 -113.60772 39823 ft 431 kts 207°
2026-05-03 23:53 37.62853 -113.63227 39820 ft 431 kts 207°
2026-05-03 23:53 37.57187 -113.65676 39785 ft 430 kts 207°
2026-05-03 23:54 37.51529 -113.68116 39807 ft 429 kts 207°
2026-05-03 23:54 37.45883 -113.70549 39809 ft 428 kts 207°
2026-05-03 23:55 37.40254 -113.72971 39810 ft 424 kts 207°
2026-05-03 23:55 37.37508 -113.74142 39788 ft 410 kts 207°
2026-05-03 23:55 37.34853 -113.75269 39783 ft 396 kts 208°
2026-05-03 23:56 37.32282 -113.76363 39752 ft 382 kts 208°
2026-05-03 23:56 37.29810 -113.77415 39768 ft 368 kts 209°
2026-05-03 23:56 37.24996 -113.79488 39781 ft 365 kts 209°
2026-05-03 23:57 37.20183 -113.81564 39781 ft 365 kts 209°
2026-05-03 23:57 37.15401 -113.83610 39799 ft 362 kts 210°
2026-05-03 23:58 37.10620 -113.85658 39781 ft 363 kts 209°
2026-05-03 23:58 37.05816 -113.87711 39777 ft 366 kts 209°
2026-05-03 23:59 37.00977 -113.89773 39764 ft 368 kts 209°
2026-05-03 23:59 36.96128 -113.91831 39743 ft 368 kts 209°
2026-05-04 00:00 36.91290 -113.93879 39733 ft 366 kts 209°
2026-05-04 00:00 36.86486 -113.95913 39728 ft 363 kts 209°
2026-05-04 00:01 36.81718 -113.97930 39728 ft 360 kts 209°
2026-05-04 00:01 36.76970 -113.99939 39720 ft 360 kts 209°
2026-05-04 00:02 36.72234 -114.01939 39703 ft 359 kts 209°
2026-05-04 00:02 36.67495 -114.03938 39702 ft 359 kts 209°
2026-05-04 00:03 36.62758 -114.05933 39703 ft 360 kts 209°
2026-05-04 00:03 36.58013 -114.07926 39655 ft 361 kts 209°
2026-05-04 00:04 36.53213 -114.09951 39703 ft 366 kts 209°
2026-05-04 00:04 36.48406 -114.11963 39685 ft 363 kts 209°
2026-05-04 00:05 36.43633 -114.13958 39666 ft 361 kts 209°
2026-05-04 00:05 36.38884 -114.15944 39651 ft 359 kts 209°
2026-05-04 00:06 36.34164 -114.17915 39652 ft 358 kts 209°
2026-05-04 00:06 36.29411 -114.19908 39657 ft 363 kts 209°
2026-05-04 00:07 36.24604 -114.21909 39670 ft 366 kts 209°
2026-05-04 00:07 36.19758 -114.23924 39679 ft 368 kts 209°
2026-05-04 00:08 36.14885 -114.25951 39661 ft 369 kts 208°
2026-05-04 00:08 36.10209 -114.28254 39665 ft 356 kts 219°
2026-05-04 00:09 36.06255 -114.31777 39655 ft 345 kts 229°
2026-05-04 00:09 36.03038 -114.36064 39668 ft 339 kts 234°
2026-05-04 00:10 35.99923 -114.40438 39661 ft 339 kts 234°
2026-05-04 00:10 35.96793 -114.44809 39678 ft 340 kts 233°
2026-05-04 00:11 35.93642 -114.49181 39686 ft 342 kts 233°
2026-05-04 00:11 35.90472 -114.53565 39691 ft 343 kts 233°
2026-05-04 00:12 35.87295 -114.57946 39698 ft 343 kts 233°
2026-05-04 00:12 35.84118 -114.62323 39671 ft 343 kts 233°
2026-05-04 00:13 35.80932 -114.66708 39713 ft 343 kts 233°
2026-05-04 00:13 35.77742 -114.71093 39703 ft 344 kts 233°
2026-05-04 00:14 35.74561 -114.75453 39718 ft 342 kts 233°
2026-05-04 00:14 35.71390 -114.79802 39752 ft 341 kts 233°
2026-05-04 00:15 35.68221 -114.84141 39743 ft 340 kts 233°
2026-05-04 00:15 35.65062 -114.88465 39748 ft 340 kts 233°
2026-05-04 00:16 35.61914 -114.92786 39748 ft 342 kts 233°
2026-05-04 00:16 35.58734 -114.97145 39750 ft 343 kts 233°
2026-05-04 00:17 35.55544 -115.01514 39749 ft 343 kts 233°
2026-05-04 00:17 35.52362 -115.05863 39770 ft 342 kts 233°
2026-05-04 00:18 35.49154 -115.10187 39760 ft 343 kts 232°
2026-05-04 00:18 35.45854 -115.14485 39783 ft 343 kts 232°
2026-05-04 00:19 35.42574 -115.18746 39762 ft 344 kts 232°
2026-05-04 00:19 35.39308 -115.22997 39774 ft 345 kts 232°
2026-05-04 00:20 35.36012 -115.27286 39785 ft 346 kts 232°
2026-05-04 00:20 35.32683 -115.31612 39786 ft 347 kts 232°
2026-05-04 00:21 35.29376 -115.35907 39786 ft 346 kts 232°
2026-05-04 00:21 35.26074 -115.40188 39789 ft 345 kts 232°
2026-05-04 00:22 35.22785 -115.44449 39788 ft 344 kts 232°
2026-05-04 00:22 35.19502 -115.48698 39782 ft 343 kts 232°
2026-05-04 00:23 35.16244 -115.52909 39786 ft 343 kts 232°
2026-05-04 00:23 35.12948 -115.57162 39741 ft 342 kts 232°
2026-05-04 00:24 35.09686 -115.61347 39776 ft 342 kts 232°
2026-05-04 00:24 35.06397 -115.65549 39776 ft 342 kts 232°
2026-05-04 00:25 35.03106 -115.69751 39772 ft 343 kts 232°
2026-05-04 00:25 35.00344 -115.73277 39778 ft 343 kts 232°
2026-05-04 00:26 34.97057 -115.77467 39762 ft 344 kts 232°
2026-05-04 00:26 34.93743 -115.81687 39761 ft 345 kts 232°
2026-05-04 00:27 34.90425 -115.85907 39757 ft 345 kts 232°
2026-05-04 00:27 34.87108 -115.90121 39747 ft 345 kts 232°
2026-05-04 00:28 34.83793 -115.94327 39751 ft 343 kts 232°
2026-05-04 00:28 34.80492 -115.98511 39705 ft 342 kts 232°
2026-05-04 00:29 34.77209 -116.02664 39733 ft 340 kts 232°
2026-05-04 00:29 34.73947 -116.06815 39746 ft 338 kts 232°
2026-05-04 00:30 34.70703 -116.10950 39740 ft 337 kts 232°
2026-05-04 00:30 34.67467 -116.15068 39747 ft 336 kts 232°
2026-05-04 00:31 34.64241 -116.19169 39752 ft 335 kts 232°
2026-05-04 00:31 34.61021 -116.23256 39660 ft 332 kts 232°
2026-05-04 00:32 34.59437 -116.25261 39316 ft 329 kts 233°
2026-05-04 00:32 34.57850 -116.27273 38881 ft 327 kts 233°
2026-05-04 00:32 34.56281 -116.29260 38481 ft 325 kts 233°
2026-05-04 00:32 34.54715 -116.31244 37958 ft 325 kts 233°
2026-05-04 00:33 34.53147 -116.33232 37348 ft 328 kts 233°
2026-05-04 00:33 34.49973 -116.37247 36134 ft 332 kts 233°
2026-05-04 00:33 34.48375 -116.39266 35567 ft 333 kts 233°
2026-05-04 00:34 34.46789 -116.41268 35088 ft 331 kts 234°
2026-05-04 00:34 34.45205 -116.43263 34723 ft 327 kts 234°
2026-05-04 00:34 34.43628 -116.45250 34145 ft 328 kts 234°
2026-05-04 00:34 34.42067 -116.47297 33426 ft 329 kts 238°
2026-05-04 00:35 34.40829 -116.49615 32504 ft 330 kts 247°
2026-05-04 00:35 34.39808 -116.52141 31652 ft 336 kts 247°
2026-05-04 00:35 34.38778 -116.54706 30801 ft 342 kts 247°
2026-05-04 00:35 34.37719 -116.57320 29971 ft 349 kts 246°
2026-05-04 00:36 34.36636 -116.59969 29149 ft 352 kts 246°
2026-05-04 00:36 34.35544 -116.62623 28479 ft 352 kts 246°
2026-05-04 00:36 34.34453 -116.65265 27852 ft 350 kts 246°
2026-05-04 00:36 34.33369 -116.67887 27257 ft 347 kts 246°
2026-05-04 00:37 34.32311 -116.70492 26734 ft 343 kts 246°
2026-05-04 00:37 34.31274 -116.73077 26232 ft 340 kts 246°
2026-05-04 00:37 34.30247 -116.75638 25771 ft 337 kts 246°
2026-05-04 00:37 34.29224 -116.78192 25159 ft 338 kts 245°
2026-05-04 00:38 34.28197 -116.80749 24535 ft 338 kts 245°
2026-05-04 00:38 34.27170 -116.83301 24029 ft 337 kts 245°
2026-05-04 00:38 34.26147 -116.85835 23597 ft 334 kts 245°
2026-05-04 00:38 34.25134 -116.88346 23141 ft 331 kts 245°
2026-05-04 00:39 34.24128 -116.90837 22630 ft 329 kts 245°
2026-05-04 00:39 34.23126 -116.93318 22110 ft 327 kts 245°
2026-05-04 00:39 34.22131 -116.95776 21593 ft 326 kts 245°
2026-05-04 00:39 34.21145 -116.98231 21319 ft 323 kts 246°
2026-05-04 00:40 34.20338 -117.00756 21146 ft 320 kts 251°
2026-05-04 00:40 34.19676 -117.03311 20924 ft 317 kts 252°
2026-05-04 00:40 34.19035 -117.05855 20641 ft 317 kts 252°
2026-05-04 00:40 34.18374 -117.08395 20375 ft 316 kts 251°
2026-05-04 00:41 34.17698 -117.10925 20114 ft 316 kts 251°
2026-05-04 00:41 34.17016 -117.13446 20005 ft 314 kts 251°
2026-05-04 00:41 34.16334 -117.15955 19985 ft 317 kts 251°
2026-05-04 00:41 34.15638 -117.18488 19843 ft 321 kts 251°
2026-05-04 00:42 34.14931 -117.21056 19426 ft 322 kts 251°
2026-05-04 00:42 34.14228 -117.23615 18958 ft 320 kts 251°
2026-05-04 00:42 34.13531 -117.26153 18507 ft 318 kts 250°
2026-05-04 00:42 34.12834 -117.28681 17991 ft 317 kts 250°
2026-05-04 00:43 34.12148 -117.31166 17480 ft 315 kts 250°
2026-05-04 00:43 34.11448 -117.33701 16987 ft 313 kts 250°
2026-05-04 00:43 34.10762 -117.36183 16514 ft 311 kts 250°
2026-05-04 00:43 34.10039 -117.38909 16013 ft 310 kts 251°
2026-05-04 00:44 34.09487 -117.41132 15601 ft 313 kts 251°
2026-05-04 00:44 34.08864 -117.43657 15113 ft 313 kts 251°
2026-05-04 00:44 34.08239 -117.46174 14655 ft 313 kts 251°
2026-05-04 00:44 34.07610 -117.48685 14204 ft 312 kts 251°
2026-05-04 00:45 34.06971 -117.51220 13750 ft 311 kts 250°
2026-05-04 00:45 34.06336 -117.53711 13286 ft 309 kts 250°
2026-05-04 00:45 34.05706 -117.56174 12871 ft 306 kts 250°
2026-05-04 00:45 34.05081 -117.58614 12463 ft 303 kts 250°
2026-05-04 00:46 34.04445 -117.61101 12053 ft 301 kts 250°
2026-05-04 00:46 34.03837 -117.63475 11661 ft 300 kts 250°
2026-05-04 00:46 34.03222 -117.65874 11278 ft 299 kts 250°
2026-05-04 00:46 34.02616 -117.68236 10932 ft 297 kts 250°
2026-05-04 00:47 34.02048 -117.70648 10555 ft 294 kts 256°
2026-05-04 00:47 34.01772 -117.73091 10185 ft 293 kts 261°
2026-05-04 00:47 34.01581 -117.75533 9798 ft 274 kts 261°
2026-05-04 00:47 34.01401 -117.77765 9378 ft 265 kts 261°
2026-05-04 00:48 34.01203 -117.80003 9036 ft 273 kts 261°
2026-05-04 00:48 34.00989 -117.82280 8655 ft 273 kts 260°
2026-05-04 00:48 34.00771 -117.84556 8289 ft 273 kts 260°
2026-05-04 00:48 34.00551 -117.86819 7938 ft 271 kts 260°
2026-05-04 00:49 34.00331 -117.89078 7568 ft 271 kts 260°
2026-05-04 00:49 34.00108 -117.91338 7197 ft 271 kts 261°
2026-05-04 00:49 33.99889 -117.93589 6848 ft 270 kts 260°
2026-05-04 00:49 33.99668 -117.95835 6491 ft 270 kts 261°
2026-05-04 00:50 33.99471 -117.98089 6126 ft 270 kts 260°
2026-05-04 00:50 33.99267 -118.00314 5972 ft 262 kts 260°
2026-05-04 00:50 33.99057 -118.02497 5976 ft 261 kts 260°
2026-05-04 00:50 33.98905 -118.03971 5973 ft 261 kts 260°
2026-05-04 00:51 33.98600 -118.06906 5533 ft 262 kts 261°
2026-05-04 00:51 33.98376 -118.09111 5186 ft 262 kts 261°
2026-05-04 00:51 33.98156 -118.11290 4845 ft 262 kts 262°
2026-05-04 00:51 33.98013 -118.12705 4598 ft 250 kts 261°
2026-05-04 00:52 33.97812 -118.14696 4261 ft 229 kts 261°
2026-05-04 00:52 33.97625 -118.16526 3971 ft 212 kts 262°
2026-05-04 00:52 33.97393 -118.18792 3619 ft 204 kts 261°
2026-05-04 00:52 33.97275 -118.19945 3465 ft 208 kts 261°
2026-05-04 00:53 33.97063 -118.22017 3142 ft 210 kts 262°
2026-05-04 00:53 33.96920 -118.23425 2909 ft 210 kts 261°
2026-05-04 00:53 33.96744 -118.25156 2652 ft 208 kts 261°
2026-05-04 00:53 33.96567 -118.26886 2348 ft 204 kts 261°
2026-05-04 00:54 33.96400 -118.28534 2068 ft 190 kts 260°
2026-05-04 00:54 33.96246 -118.30056 1822 ft 177 kts 261°
2026-05-04 00:54 33.96097 -118.31504 1565 ft 169 kts 260°
2026-05-04 00:54 33.95957 -118.32881 1389 ft 157 kts 259°
2026-05-04 00:55 33.95829 -118.34129 1149 ft 142 kts 261°
2026-05-04 00:55 33.95717 -118.35233 977 ft 126 kts 261°
2026-05-04 00:55 33.95607 -118.36294 805 ft 128 kts 263°
2026-05-04 00:55 33.95505 -118.37314 646 ft 121 kts 261°
2026-05-04 00:56 33.95409 -118.38332 481 ft 120 kts 261°
2026-05-04 00:56 33.95297 -118.39301 346 ft 115 kts 263°
2026-05-04 00:56 33.95204 -118.40260 176 ft 115 kts 265°
2026-05-04 00:56 33.95110 -118.41199 128 ft 103 kts 263°
2026-05-04 00:57 33.95031 -118.41970 129 ft 73 kts 263°
2026-05-04 00:57 33.94984 -118.42383 127 ft 36 kts 257°
2026-05-04 00:57 33.94902 -118.42607 125 ft 20 kts 236°
2026-05-04 00:57 33.94858 -118.42670 125 ft 0 kts 224°
2026-05-04 00:59 33.94855 -118.42672 125 ft 4 kts 224°
2026-05-04 00:59 33.94754 -118.42758 127 ft 26 kts 204°
2026-05-04 00:59 33.94669 -118.42768 126 ft 15 kts 160°
2026-05-04 00:59 33.94649 -118.42619 130 ft 15 kts 84°
2026-05-04 01:00 33.94660 -118.42494 130 ft 15 kts 83°
2026-05-04 01:00 33.94672 -118.42374 129 ft 15 kts 83°
2026-05-04 01:00 33.94684 -118.42253 127 ft 14 kts 84°
2026-05-04 01:00 33.94693 -118.42132 127 ft 14 kts 84°
2026-05-04 01:01 33.94708 -118.42013 124 ft 14 kts 81°
2026-05-04 01:01 33.94721 -118.41893 129 ft 14 kts 84°
2026-05-04 01:01 33.94670 -118.41802 127 ft 14 kts 137°
2026-05-04 01:01 33.94651 -118.41704 130 ft 9 kts 107°
2026-05-04 01:02 33.94603 -118.41674 128 ft 9 kts 201°
2026-05-04 01:02 33.94546 -118.41708 125 ft 9 kts 205°
2026-05-04 01:02 33.94480 -118.41717 127 ft 9 kts 169°
2026-05-04 01:02 33.94451 -118.41661 125 ft 9 kts 91°
2026-05-04 01:03 33.94457 -118.41608 129 ft 0 kts 81°
2026-05-04 01:03 33.94458 -118.41598 125 ft 0 kts 81°
2026-05-04 01:14 33.94544 -118.40990 125 ft 0 kts 263°
2026-05-04 01:17 33.94467 -118.40984 124 ft 0 kts 264°